GLO1880 SBGL-SBRF

Flight info

Callsign GLO1880
Flight time N/A
Altitude 39000
Route IMBAP UZ42 ANBEX
Aircraft B38M/M-SDE1FGHILORVWXY/HB1

Departure

Time N/A
Airport Rio Galeão – Tom Jobim International Airport (SBGL)

Arrival

Time 2026-05-03 20:25
Airport Recife/Guararapes - Gilberto Freyre International Airport (SBRF)
Time Latitude Longitude Altitude Speed Heading
2026-05-03 20:15 -8.31527 -35.07649 9331 ft 292 kts 43°
2026-05-03 20:15 -8.30049 -35.06251 9006 ft 291 kts 43°
2026-05-03 20:15 -8.28555 -35.04883 8681 ft 289 kts 37°
2026-05-03 20:15 -8.26713 -35.04033 8318 ft 290 kts 14°
2026-05-03 20:16 -8.24779 -35.03572 8020 ft 288 kts 14°
2026-05-03 20:16 -8.22839 -35.03099 7730 ft 286 kts 14°
2026-05-03 20:16 -8.20907 -35.02635 7428 ft 285 kts 14°
2026-05-03 20:16 -8.18975 -35.02177 7114 ft 285 kts 14°
2026-05-03 20:17 -8.17021 -35.01948 6818 ft 284 kts 354°
2026-05-03 20:17 -8.15121 -35.02429 6571 ft 280 kts 343°
2026-05-03 20:17 -8.13258 -35.02996 6340 ft 280 kts 343°
2026-05-03 20:17 -8.11405 -35.03565 6076 ft 277 kts 343°
2026-05-03 20:18 -8.09571 -35.04133 5837 ft 274 kts 343°
2026-05-03 20:18 -8.07756 -35.04697 5593 ft 272 kts 343°
2026-05-03 20:18 -8.05976 -35.05251 5340 ft 262 kts 342°
2026-05-03 20:18 -8.04270 -35.05783 5119 ft 251 kts 342°
2026-05-03 20:19 -8.02635 -35.06294 4918 ft 241 kts 343°
2026-05-03 20:19 -8.01037 -35.06706 4681 ft 236 kts 358°
2026-05-03 20:19 -7.99460 -35.06405 4410 ft 230 kts 30°
2026-05-03 20:19 -7.98288 -35.05386 4254 ft 216 kts 59°
2026-05-03 20:20 -7.97663 -35.04071 4161 ft 203 kts 72°
2026-05-03 20:20 -7.97165 -35.02757 3998 ft 199 kts 73°
2026-05-03 20:20 -7.96691 -35.01442 3801 ft 200 kts 73°
2026-05-03 20:20 -7.96256 -35.00101 3508 ft 202 kts 84°
2026-05-03 20:21 -7.96403 -34.98733 3201 ft 196 kts 116°
2026-05-03 20:21 -7.97235 -34.97706 2958 ft 188 kts 142°
2026-05-03 20:21 -7.98360 -34.97056 2682 ft 185 kts 156°
2026-05-03 20:21 -7.99566 -34.96628 2423 ft 182 kts 161°
2026-05-03 20:22 -8.00741 -34.96252 2205 ft 168 kts 162°
2026-05-03 20:22 -8.01790 -34.95907 1974 ft 150 kts 162°
2026-05-03 20:22 -8.02728 -34.95598 1795 ft 136 kts 162°
2026-05-03 20:22 -8.03619 -34.95303 1636 ft 134 kts 161°
2026-05-03 20:23 -8.04502 -34.95011 1430 ft 133 kts 161°
2026-05-03 20:23 -8.05376 -34.94722 1256 ft 132 kts 162°
2026-05-03 20:23 -8.06245 -34.94434 1067 ft 132 kts 161°
2026-05-03 20:23 -8.07125 -34.94142 907 ft 134 kts 161°
2026-05-03 20:24 -8.08019 -34.93845 755 ft 136 kts 161°
2026-05-03 20:24 -8.08911 -34.93550 596 ft 137 kts 161°
2026-05-03 20:24 -8.09822 -34.93251 417 ft 138 kts 162°
2026-05-03 20:24 -8.10706 -34.92956 247 ft 131 kts 160°
2026-05-03 20:25 -8.11568 -34.92671 65 ft 133 kts 162°
2026-05-03 20:25 -8.12373 -34.92406 51 ft 102 kts 162°
2026-05-03 20:25 -8.12835 -34.92252 51 ft 43 kts 161°
2026-05-03 20:25 -8.12995 -34.92199 50 ft 18 kts 162°
2026-05-03 20:26 -8.13163 -34.92142 48 ft 29 kts 154°
2026-05-03 20:26 -8.13272 -34.92039 45 ft 15 kts 133°
2026-05-03 20:26 -8.13283 -34.91975 46 ft 10 kts 47°
2026-05-03 20:26 -8.13215 -34.91976 46 ft 11 kts 343°
2026-05-03 20:27 -8.13155 -34.91983 47 ft 6 kts 45°
2026-05-03 20:27 -8.13149 -34.91945 48 ft 5 kts 79°
2026-05-03 20:27 -8.13142 -34.91919 48 ft 3 kts 72°
2026-05-03 20:27 -8.13141 -34.91919 48 ft 0 kts 72°